International Skating Union - Official Site

ISU World Cup Calgary
November 13-15, 2015

Draw | Lap Times | Index | World Cup

Referee: Rick  HUNT  (CAN)
Starter: Bruce  LANSER  (USA)
StartTime: EndTime: Air Temp: Ice Temp: Humidity:
15:15 15:27 17.4 ℃ -8.2 ℃ 33%
Result Team Pursuit Ladies
Rankings as of Nov 15 2015 4:47PM
Rank: No.: Team: Nation: Time: Behind: Points:
Total 10
1 10 Netherlands (267) Marrit Leenstra (261) Antoinette de Jong (265) Marije Joling NED NED 2:56.110.5 - 18.46 - (18.4)
1.0 - 32.35 - (13.8)
1.5 - 46.03 - (13.6)
2.0 - 59.69 - (13.6)
2.5 - 1:13.61 - (13.9)
3.0 - 1:27.71 - (14.0)
3.5 - 1:42.12 - (14.4)
4.0 - 1:56.93 - (14.8)
4.5 - 2:11.61 - (14.6)
5.0 - 2:26.37 - (14.7)
5.5 - 2:41.18 - (14.8)
6.0 - 2:56.11 - (14.9)
100
2 7 Japan (241) Ayaka Kikuchi (245) Miho Takagi (244) Misaki Oshigiri JPN JPN 2:56.460.5 - 18.71 - (18.7)
1.0 - 32.78 - (14.0)
1.5 - 46.74 - (13.9)
2.0 - 1:00.91 - (14.1)
2.5 - 1:15.24 - (14.3)
3.0 - 1:29.39 - (14.1)
3.5 - 1:43.66 - (14.2)
4.0 - 1:57.95 - (14.2)
4.5 - 2:12.52 - (14.5)
5.0 - 2:27.27 - (14.7)
5.5 - 2:41.86 - (14.5)
6.0 - 2:56.46 - (14.5)
0.35 80
3 6 Russia (288) Olga Graf (293) Natalya Voronina (290) Elizaveta Kazelina RUS RUS 2:56.980.5 - 19.64 - (19.6)
1.0 - 33.77 - (14.1)
1.5 - 47.90 - (14.1)
2.0 - 1:02.03 - (14.1)
2.5 - 1:16.39 - (14.3)
3.0 - 1:30.41 - (14.0)
3.5 - 1:44.64 - (14.2)
4.0 - 1:58.84 - (14.2)
4.5 - 2:13.32 - (14.4)
5.0 - 2:28.01 - (14.6)
5.5 - 2:42.57 - (14.5)
6.0 - 2:56.98 - (14.4)
0.87 70
4 5 Canada (206) Ivanie Blondin (215) Josie Spence (217) Isabelle Weidemann CAN CAN 2:59.170.5 - 19.35 - (19.3)
1.0 - 33.50 - (14.1)
1.5 - 47.55 - (14.0)
2.0 - 1:01.43 - (13.8)
2.5 - 1:15.45 - (14.0)
3.0 - 1:29.82 - (14.3)
3.5 - 1:44.39 - (14.5)
4.0 - 1:59.23 - (14.8)
4.5 - 2:14.25 - (15.0)
5.0 - 2:29.41 - (15.1)
5.5 - 2:44.26 - (14.8)
6.0 - 2:59.17 - (14.9)
3.06 60
5 4 Korea (251) Bo-Reum Kim (255) Seon-Yeong Noh (256) Do-Young Park KOR KOR 2:59.250.5 - 19.11 - (19.1)
1.0 - 33.24 - (14.1)
1.5 - 47.30 - (14.0)
2.0 - 1:01.58 - (14.2)
2.5 - 1:15.85 - (14.2)
3.0 - 1:30.22 - (14.3)
3.5 - 1:44.84 - (14.6)
4.0 - 1:59.32 - (14.4)
4.5 - 2:14.17 - (14.8)
5.0 - 2:29.11 - (14.9)
5.5 - 2:44.30 - (15.1)
6.0 - 2:59.25 - (14.9)
3.14 50
6 9 Germany (235) Claudia Pechstein (233) Gabriele Hirschbichler (232) Roxanne Dufter GER GER 3:00.330.5 - 19.84 - (19.8)
1.0 - 34.43 - (14.5)
1.5 - 48.70 - (14.2)
2.0 - 1:02.90 - (14.1)
2.5 - 1:17.26 - (14.3)
3.0 - 1:31.58 - (14.3)
3.5 - 1:46.23 - (14.6)
4.0 - 2:01.06 - (14.8)
4.5 - 2:16.00 - (14.9)
5.0 - 2:30.84 - (14.8)
5.5 - 2:45.56 - (14.7)
6.0 - 3:00.33 - (14.7)
4.22 45
7 3 China (224) Xin Zhao (218) Jiachen Hao (220) Jing Liu CHN CHN 3:01.300.5 - 19.20 - (19.1)
1.0 - 33.87 - (14.6)
1.5 - 48.15 - (14.2)
2.0 - 1:02.52 - (14.3)
2.5 - 1:16.85 - (14.3)
3.0 - 1:31.52 - (14.6)
3.5 - 1:46.64 - (15.1)
4.0 - 2:01.88 - (15.2)
4.5 - 2:16.68 - (14.8)
5.0 - 2:31.75 - (15.0)
5.5 - 2:46.57 - (14.8)
6.0 - 3:01.30 - (14.7)
5.19 40
8 8 Poland (281) Natalia Czerwonka (283) Katarzyna Wozniak (285) Luiza Zlotkowska POL POL 3:01.500.5 - 19.01 - (19.0)
1.0 - 33.25 - (14.2)
1.5 - 47.46 - (14.2)
2.0 - 1:01.81 - (14.3)
2.5 - 1:15.98 - (14.1)
3.0 - 1:30.48 - (14.5)
3.5 - 1:45.16 - (14.6)
4.0 - 2:00.22 - (15.0)
4.5 - 2:15.67 - (15.4)
5.0 - 2:30.81 - (15.1)
5.5 - 2:45.99 - (15.1)
6.0 - 3:01.50 - (15.5)
5.39 35
9 2 Czech Republic (228) Nikola Zdráhalová (227) Martina Sábliková (226) Natalie Kerschbaummayr CZE CZE 3:02.500.5 - 19.40 - (19.3)
1.0 - 33.99 - (14.5)
1.5 - 48.58 - (14.5)
2.0 - 1:03.33 - (14.7)
2.5 - 1:18.26 - (14.9)
3.0 - 1:33.08 - (14.8)
3.5 - 1:47.94 - (14.8)
4.0 - 2:02.72 - (14.7)
4.5 - 2:17.51 - (14.7)
5.0 - 2:32.43 - (14.9)
5.5 - 2:47.39 - (14.9)
6.0 - 3:02.50 - (15.1)
6.39 30
10 1 USA (294) Erin Bartlett (299) Paige Schwartzburg (296) Kelly Gunther USA USA 3:09.370.5 - 19.86 - (19.8)
1.0 - 35.06 - (15.2)
1.5 - 49.98 - (14.9)
2.0 - 1:05.01 - (15.0)
2.5 - 1:20.10 - (15.0)
3.0 - 1:35.52 - (15.4)
3.5 - 1:50.71 - (15.1)
4.0 - 2:06.23 - (15.5)
4.5 - 2:22.04 - (15.8)
5.0 - 2:37.86 - (15.8)
5.5 - 2:53.58 - (15.7)
6.0 - 3:09.37 - (15.7)
13.26 25